Home > Weather > Pontiac > Past weeks

Flag for USA Weather for the Past 2 Weeks in Pontiac, Michigan, USA

Now
50 °F

Overcast.


Feels Like: 48 °F
Forecast: 38 / 53 °F
Wind: 6 mph from North

Location: Oakland County International Airport

Current Time: Apr 29, 2016 at 5:42:48 PM

Latest Report: Apr 29, 2016 at 4:53 PM


Visibility: 10 mi

Pressure: 30.08 "Hg

Humidity: 59%

Dew Point: 36 °F

Location of PontiacLocation

Historic Weather in Pontiac — Graph

°F

Pontiac Temperature Yesterday

Maximum temperature yesterday: 49 °F (at 4:53 PM)
Minimum temperature yesterday: 39 °F (at 9:53 AM)
Average temperature yesterday: 43 °F

High & Low Weather Summary for the Past Weeks

 TemperatureHumidityPressure
High80 °F (Apr 18, 3:53 PM)100% (Apr 22, 2:53 AM)30.47 "Hg (Apr 22, 2:53 AM)
Low31 °F (Apr 15, 6:53 AM)21% (Apr 16, 5:53 PM)29.63 "Hg (Apr 26, 3:53 AM)
Average52 °F55%30.11 "Hg
* Reported Apr 14 3:53 PM — Apr 29 3:53 PM, Pontiac, Weather by CustomWeather, © 2016

Note: Actual official high and low records may vary slightly from our data, if they occured in-between our weather recording intervals... More about our weather records

Advertising

Pontiac Weather History for the Previous 24 Hours

Scroll right to see more
 ConditionsComfort  
Time TempWeatherWind HumidityBarometerVisibility
3:53 PM
Fri, Apr 29
50 °FMore clouds than sun.9 mph63%30.09 "Hg10 mi
2:53 PM46 °FMostly cloudy.6 mph68%30.11 "Hg10 mi
1:53 PM44 °FMostly cloudy.6 mph73%30.09 "Hg10 mi
12:53 PM43 °FMostly cloudy.6 mph79%30.09 "Hg10 mi
11:53 AM41 °FOvercast.8 mph76%30.09 "Hg10 mi
10:53 AM43 °FOvercast.3 mph68%30.06 "Hg10 mi
9:53 AM42 °FOvercast.6 mph71%30.05 "Hg10 mi
8:53 AM41 °FLight rain. Overcast.7 mph76%30.05 "Hg10 mi
7:53 AM43 °FMostly cloudy.6 mph65%30.04 "Hg10 mi
6:53 AM43 °FOvercast.3 mph65%30.04 "Hg10 mi
5:53 AM44 °FOvercast.3 mph55%30.02 "Hg10 mi
4:53 AM43 °FOvercast.5 mph58%30.02 "Hg10 mi
3:53 AM43 °FOvercast.3 mph58%30.01 "Hg10 mi
2:53 AM44 °FOvercast.5 mph53%30.01 "Hg10 mi
1:53 AM44 °FOvercast.7 mph53%30.02 "Hg10 mi
12:53 AM44 °FOvercast.8 mph53%30.03 "Hg10 mi
11:53 PM
Thu, Apr 28
44 °FOvercast.8 mph55%30.03 "Hg10 mi
10:53 PM45 °FOvercast.9 mph51%30.02 "Hg10 mi
9:53 PM46 °FOvercast.9 mph46%30.02 "Hg10 mi
8:53 PM46 °FOvercast.8 mph46%30.01 "Hg10 mi
7:53 PM47 °FPartly sunny.9 mph48%29.99 "Hg10 mi
6:53 PM47 °FPartly sunny.13 mph50%29.99 "Hg10 mi
5:53 PM49 °FMostly cloudy.12 mph46%29.98 "Hg10 mi
Weather by CustomWeather, © 2016

See weather overviewHow to use our weather pages